sat.trackr.live / text

‹ back to catalog

STARLINK-36646

NORAD 67823 · 2026-033C

PAYLOAD ACTIVE UNKNOWN

§ Identity

Operator
Country
US
Launch date
2026-02-16
Launch site
AFETR
Launch vehicle
Mass (kg)
RCS (m²)

Purposes: comms

External: N2YO · Heavens-Above · Gunter

§ Orbital elements

Epoch: 2026-09-19T08:41:57.907392Z

Period
94.27 min
Inclination
43.0045°
Eccentricity
0.0002140
Mean motion
15.27593304 rev/d
Perigee alt
481.5 km
Apogee alt
484.5 km
Semi-major
6,861.1 km
B*
3.6917e-4
RAAN
253.3092°
Arg perigee
276.3321°
Mean anomaly
83.7287°
Rev number
3,429

§ Raw data

STARLINK-366461 67823U 26033C   26262.36247578  .00009914  00000+0  36917-3 0  99912 67823  43.0045 253.3092 0002140 276.3321  83.7287 15.27593304 34291

JSON: /api/v1/satellites/67823 · /tle

For live sub-satellite position, see the globe view (requires WebGL).

§ Visibility from observer

Set your observer location to see the next 7 days of passes ≥ 10°. The values pass through the URL so the page stays shareable.

No JS? Fill the form by hand. The geolocation button needs JavaScript.